RH
30 29 26 26 26 25 25 24 23 22 23 26 27 29 34 36 37 37 40 41 41 42 43 43 45 47 49 50 52 53 52 52 52 51 49 47 44 41 37 33 31 32 34 37 42 45 49 51 52 50 45 38 31 26 23 22 21 20 20 19 19 19 19 19 19 19 19 19 19 19 20 20 20 20 21 21 21 21 19 18 17 16 15 13 13
31 26 23 23 21 21 20 17 15 15 16 19 20 22 28 29 29 32 37 39 40 42 43 43 44 46 47 49 50 51 52 52 52 51 50 49 47 45 41 38 36 36 37 41 44 48 51 54 54 51 43 33 27 25 24 22 21 20 20 19 19 18 18 18 17 17 17 17 17 17 18 18 19 20 20 20 19 17 16 15 15 14 14 13 13
27 21 20 20 19 18 16 14 14 15 16 17 17 19 22 23 24 28 34 37 39 41 42 43 45 47 48 49 50 51 52 53 53 52 52 51 50 48 46 44 42 41 43 45 48 51 54 55 56 49 38 29 27 27 25 22 19 17 17 16 16 15 15 14 14 14 14 14 14 15 16 17 17 18 19 19 19 19 18 17 16 15 15 14 14
21 17 18 18 18 17 15 16 18 18 17 16 17 19 20 22 24 27 32 35 38 40 41 43 45 47 47 49 51 51 52 53 53 52 52 52 52 52 51 50 49 50 51 51 52 55 56 57 56 44 33 29 28 28 27 24 19 16 14 13 12 11 11 11 10 11 10 11 12 13 14 14 14 16 20 22 21 20 19 19 18 17 18 18 17
24 19 17 19 18 18 18 18 19 18 15 16 18 19 21 23 24 27 30 32 35 37 39 42 44 45 46 48 49 50 49 51 51 49 49 53 54 55 55 55 56 56 56 56 57 57 58 59 53 40 32 32 30 30 30 26 19 14 12 10 9 8 8 8 8 8 8 8 9 10 10 10 12 15 17 17 18 19 17 16 15 15 17 20 22
29 23 18 20 18 17 18 17 17 16 15 18 19 21 22 23 24 27 29 30 31 33 38 41 42 42 44 45 45 46 46 45 44 43 48 55 57 58 59 60 60 61 61 60 60 60 60 60 52 40 36 35 33 33 32 28 21 14 10 8 7 7 7 7 7 7 7 7 7 8 8 9 10 11 13 13 16 19 18 18 18 17 17 20 23
26 25 21 19 17 17 17 16 18 19 19 21 22 22 23 23 25 27 29 30 31 33 37 40 41 40 41 42 42 44 43 38 36 39 47 55 60 61 61 63 63 65 65 63 63 62 62 60 53 43 40 38 37 37 35 30 22 12 9 7 6 6 6 6 6 6 7 8 8 8 8 9 9 10 12 12 12 12 13 14 16 16 15 16 18
22 22 21 20 19 20 19 19 21 22 22 24 24 25 26 27 28 30 31 31 31 33 36 38 39 39 40 42 41 41 39 36 36 40 45 53 60 62 63 65 67 68 68 67 66 65 63 62 55 47 44 42 40 39 37 32 22 12 8 7 5 6 6 6 7 7 7 8 8 9 10 10 11 11 13 14 14 11 9 10 11 12 12 11 11
22 21 22 21 22 23 23 25 25 25 26 27 28 29 30 31 32 33 34 33 33 35 36 38 40 40 43 44 41 39 38 37 39 42 44 49 56 60 63 66 68 70 71 70 69 67 65 63 57 50 46 44 43 42 39 32 23 12 7 6 6 6 6 6 7 7 8 8 8 8 9 10 11 12 14 15 16 14 9 7 7 7 7 7 7
21 22 22 21 24 25 27 28 28 28 30 31 31 32 33 35 37 38 39 39 39 40 40 40 41 43 45 44 42 40 39 40 42 43 44 47 52 56 60 65 69 72 74 74 73 69 66 63 58 52 48 46 45 43 39 31 22 13 8 6 6 6 6 6 7 7 8 8 9 9 9 9 10 11 13 14 14 17 16 12 10 8 6 6 6
19 21 22 23 25 25 26 27 26 26 26 25 25 27 33 38 41 43 44 45 47 47 47 46 45 46 45 45 44 43 43 45 46 46 46 48 51 52 57 64 69 74 77 78 77 71 67 63 57 51 49 47 45 42 37 29 21 14 8 7 7 7 7 7 7 8 9 10 10 10 10 10 10 9 10 12 14 17 18 16 14 12 8 6 6
19 21 21 22 23 22 23 22 21 21 19 20 21 26 34 39 44 47 46 49 54 56 58 57 55 54 52 51 50 49 51 53 54 54 54 56 58 58 62 66 68 73 78 80 79 74 67 61 57 54 51 46 39 32 29 23 17 13 10 8 7 8 8 8 8 8 9 10 11 12 12 11 12 11 11 13 13 15 16 14 12 13 11 8 7
20 22 21 22 22 21 20 19 19 21 21 23 25 29 34 36 42 45 42 49 60 67 70 71 71 70 68 66 63 62 62 63 64 64 65 66 68 69 70 71 73 76 80 83 82 74 66 63 61 58 54 45 33 25 22 17 13 11 10 8 7 8 9 9 9 10 10 11 11 12 13 13 13 14 14 14 14 15 16 15 13 15 14 9 8
21 22 22 23 22 20 21 22 24 26 25 27 27 29 32 31 35 38 36 44 58 69 76 82 84 85 87 86 83 81 79 78 78 77 78 78 79 80 80 80 82 83 84 85 80 72 69 69 65 59 55 47 35 25 20 17 15 14 11 9 9 9 9 10 10 11 11 12 12 13 13 14 15 15 16 16 17 17 17 18 17 16 14 11 11
22 25 26 24 23 24 28 30 30 30 28 29 30 30 32 32 35 38 38 43 52 62 71 80 84 88 94 96 95 96 95 94 94 93 93 92 91 91 90 90 89 88 87 82 76 74 73 69 62 57 51 44 36 30 27 25 25 22 16 11 11 10 10 11 11 12 13 13 14 14 14 15 15 16 18 18 19 20 20 21 22 23 22 16 12
24 29 28 26 28 31 33 33 32 32 32 33 34 35 37 37 39 43 44 48 53 59 66 73 78 82 87 91 93 95 96 98 98 98 99 99 99 99 97 97 96 93 90 84 81 81 76 67 58 52 47 43 41 38 35 33 32 31 25 18 14 13 12 12 12 13 14 15 15 15 15 16 16 17 18 19 20 22 22 24 25 29 34 30 23
28 32 30 31 33 32 34 34 33 36 37 39 41 42 44 46 47 49 51 54 59 64 68 72 76 77 80 83 85 87 91 95 98 99 100 100 100 100 99 100 99 98 95 89 85 84 80 74 66 57 52 51 49 44 41 38 36 34 30 24 19 17 16 15 16 15 16 17 16 16 17 17 18 19 19 21 21 22 24 25 26 28 35 41 43
33 34 33 35 35 34 36 38 39 43 45 47 50 51 53 56 57 58 60 62 66 69 71 72 73 72 73 73 75 77 80 83 87 91 95 98 100 100 100 100 100 99 97 90 85 86 87 84 77 69 62 57 52 49 46 41 38 35 34 30 24 21 20 19 19 19 18 18 18 18 19 18 19 20 20 21 22 23 23 25 26 27 31 36 44
37 36 35 36 36 38 42 43 46 50 52 54 56 57 58 57 57 58 60 64 66 67 68 67 65 63 60 59 59 62 67 72 76 78 82 90 98 99 99 100 100 100 98 91 87 91 92 89 83 76 69 62 57 53 49 44 41 40 38 34 28 24 23 21 21 22 21 20 20 20 20 20 21 21 22 22 23 24 24 25 26 26 30 31 34
40 37 36 38 41 45 48 52 57 59 60 60 58 57 55 53 54 56 58 58 58 56 53 50 46 41 38 36 37 42 51 64 74 81 87 92 96 100 101 100 100 100 97 91 91 96 95 91 87 81 74 68 62 57 53 51 49 46 43 39 34 30 26 25 25 24 23 23 22 22 22 22 23 22 23 24 24 25 25 26 27 26 28 30 31
39 37 40 44 48 54 58 62 65 63 62 59 55 54 53 52 52 49 46 42 38 35 32 29 28 26 25 25 27 31 38 48 61 76 90 96 99 100 100 99 101 100 95 93 96 98 93 89 87 83 77 71 65 61 59 58 55 51 48 43 39 34 30 28 28 27 27 26 24 24 24 23 25 25 24 25 25 26 27 26 28 28 28 30 33
39 44 50 55 60 65 66 67 66 62 60 56 54 53 49 46 41 34 31 29 27 29 30 31 30 30 30 29 30 32 35 43 55 68 81 92 98 99 99 101 101 96 94 97 98 94 88 87 84 80 76 71 67 64 62 61 58 54 51 47 42 37 34 32 31 30 30 29 27 26 25 25 26 26 26 27 26 26 27 26 27 28 29 30 33
49 56 60 65 69 70 70 68 64 61 59 56 54 50 43 37 33 31 31 33 36 38 38 40 40 39 39 37 36 37 40 48 56 63 72 83 92 96 99 99 96 95 98 97 92 86 84 83 80 77 74 69 66 64 62 61 58 55 52 48 43 39 37 35 35 35 34 33 31 28 27 27 28 28 27 28 28 27 27 27 27 29 30 31 33
58 62 65 70 71 71 70 66 63 60 57 55 51 45 38 35 34 37 41 45 48 46 45 48 50 50 49 47 45 44 46 50 55 62 74 84 90 93 94 94 96 98 98 90 84 83 83 81 79 76 71 68 65 64 64 62 60 58 55 51 47 42 40 39 38 39 38 36 33 31 30 30 30 30 29 28 28 27 27 28 28 29 31 32 34
59 62 67 71 71 71 68 63 62 60 58 57 51 43 39 37 38 46 53 54 50 50 53 57 59 60 59 55 54 54 56 59 65 73 83 89 91 92 94 97 99 98 91 86 85 85 84 82 79 75 71 69 67 67 67 66 64 63 61 56 50 45 43 43 43 43 41 38 35 33 31 32 32 31 30 29 28 28 28 30 30 32 35 38 40
65 69 74 75 73 71 67 64 65 64 62 57 48 43 41 39 40 48 54 52 51 58 64 67 69 67 64 61 59 61 65 71 79 87 93 97 98 98 99 100 98 94 89 88 88 86 84 82 79 75 73 70 69 69 70 71 71 72 69 60 52 48 47 46 46 46 44 40 37 36 34 34 34 31 30 29 29 29 30 32 35 38 41 45 48
73 77 78 76 72 69 66 67 67 65 60 50 44 44 43 41 42 44 46 51 59 67 71 77 81 75 69 66 62 61 63 66 72 80 85 89 89 89 91 92 91 90 89 89 88 86 85 82 78 76 73 71 72 73 74 76 77 76 70 60 53 50 50 50 50 49 46 42 40 39 38 36 35 33 32 30 30 32 34 37 41 46 52 57 60
78 79 77 72 69 67 67 67 64 59 52 45 45 47 44 43 41 40 50 64 67 70 78 85 87 80 72 68 64 61 60 60 63 67 69 71 71 74 80 84 86 87 88 88 88 87 85 83 80 77 75 75 76 77 78 79 79 76 69 61 56 55 55 54 53 50 47 45 43 42 41 39 37 34 33 32 33 35 39 44 50 57 63 66 67
79 76 72 69 68 68 68 64 59 56 52 49 50 49 45 44 40 45 70 83 74 74 86 91 86 79 73 67 62 59 57 59 62 68 74 77 79 82 86 88 89 89 90 91 90 88 86 83 80 78 77 78 78 79 80 80 78 72 64 58 57 57 58 56 54 51 49 48 46 45 44 42 42 40 40 41 43 47 54 58 62 67 71 73 73
77 73 70 69 69 69 66 63 62 63 61 58 58 53 47 46 43 50 71 78 72 78 89 87 80 75 69 63 60 58 57 59 62 67 75 80 83 87 88 88 89 89 90 91 89 87 85 82 81 80 80 81 81 81 81 80 75 71 70 70 68 65 64 60 55 51 50 50 50 51 53 57 62 63 63 62 62 66 73 76 74 74 75 76 76
73 71 70 69 69 69 68 70 74 73 71 69 64 55 48 47 46 49 57 62 66 76 79 76 74 70 65 61 59 58 58 59 61 65 69 72 76 78 79 80 82 84 87 87 86 85 84 84 84 85 84 85 84 83 81 78 73 71 80 89 92 89 82 71 63 59 59 61 65 68 72 77 81 84 81 76 73 75 80 83 83 82 81 82 81
72 70 70 70 71 73 75 78 79 77 75 72 63 52 47 46 45 48 53 58 64 69 68 68 68 64 60 58 56 55 55 55 56 59 61 64 67 68 70 72 74 77 80 81 83 85 86 87 88 88 88 88 86 84 81 77 71 66 69 77 86 92 92 86 85 86 86 87 89 90 88 84 83 84 82 77 75 78 82 85 86 86 88 89 89
72 71 71 73 74 76 78 79 79 78 75 68 57 49 47 47 46 50 55 58 61 62 61 60 59 56 54 52 50 50 50 50 52 53 55 58 60 62 65 67 68 71 73 76 80 83 85 88 89 89 89 88 85 81 76 73 69 63 64 70 74 80 86 91 94 97 98 98 98 96 94 90 86 85 85 85 84 84 85 86 85 84 83 82 79
73 73 74 74 76 78 80 81 80 77 70 60 52 49 47 47 48 51 54 56 55 54 53 52 50 49 47 46 46 47 47 48 50 51 52 54 56 58 61 63 65 67 69 71 75 78 81 84 85 85 86 83 77 72 68 68 66 60 64 78 87 93 98 99 98 98 99 99 99 99 99 97 93 91 90 90 88 86 85 84 80 76 74 72 69
74 73 74 75 77 80 82 83 80 73 62 54 50 48 46 45 46 48 49 49 48 46 46 46 45 45 45 45 47 47 48 50 51 52 53 54 55 57 59 62 63 64 66 68 70 73 76 78 79 79 78 74 68 66 65 65 64 61 63 75 86 94 99 101 100 100 100 99 100 99 97 96 93 89 86 83 81 80 79 75 70 68 66 66 66
74 72 73 76 80 83 85 83 77 66 57 52 49 46 43 42 43 44 43 42 42 41 42 43 43 45 46 47 49 49 50 52 53 54 55 55 56 58 59 61 62 62 64 66 67 69 71 71 72 73 71 68 64 64 64 63 61 60 61 67 73 78 84 90 95 98 98 97 96 93 91 89 85 79 75 72 71 71 71 70 66 62 62 64 64
73 73 76 81 84 87 86 79 68 59 53 50 47 42 40 38 39 39 39 39 40 41 41 43 45 46 47 48 50 51 52 54 55 56 57 57 58 59 59 61 61 61 62 63 64 66 67 67 67 66 67 66 62 61 62 62 61 61 61 64 69 73 79 82 85 88 89 87 86 84 81 77 72 70 67 65 67 71 71 71 69 68 70 70 66
75 77 82 86 87 84 77 67 59 54 50 46 42 39 37 37 38 39 40 40 41 42 44 45 46 48 49 50 52 53 54 55 55 56 57 58 58 59 60 61 61 61 61 62 63 64 63 64 64 64 64 64 60 59 60 60 61 61 61 63 63 66 71 73 74 76 77 75 73 68 64 62 60 60 60 63 71 77 74 72 74 82 90 89 79
80 83 85 86 84 74 63 57 53 51 45 41 38 37 37 38 39 40 40 41 43 45 46 47 48 49 51 52 53 55 56 56 56 57 58 58 58 59 61 61 62 62 61 60 62 62 61 61 62 62 63 63 60 58 59 60 61 61 61 61 61 61 62 62 63 64 63 62 60 56 56 57 57 60 66 71 77 81 82 84 89 94 100 100 92
84 88 87 84 78 66 56 52 49 44 40 37 36 36 37 38 39 40 42 43 45 46 47 48 50 50 52 54 55 56 56 56 57 57 57 58 58 59 60 61 62 62 62 61 61 61 60 58 59 60 60 61 61 59 58 60 61 60 59 59 61 63 62 60 60 59 57 57 56 55 57 57 56 65 76 76 74 79 89 97 100 102 101 98 94
87 89 85 77 70 61 53 48 43 39 36 35 35 36 37 38 40 41 43 44 46 48 49 50 51 51 52 54 55 56 56 57 58 58 57 57 58 59 60 60 61 62 62 61 60 61 60 57 56 58 57 58 60 60 59 58 59 59 59 58 59 60 59 57 55 53 53 53 52 53 58 61 63 69 71 68 69 76 83 87 92 96 94 89 90
90 88 81 72 64 56 50 45 41 38 36 34 35 36 37 39 41 43 44 46 47 48 49 50 51 52 53 54 55 56 57 57 58 59 59 58 59 60 61 61 61 61 61 60 59 60 60 57 55 55 55 55 57 58 58 56 56 57 57 57 57 58 56 59 65 67 65 64 63 64 69 75 77 73 66 67 73 74 71 74 83 92 94 93 97
90 83 74 64 57 51 45 40 38 37 35 35 36 37 38 41 42 44 46 46 48 49 50 51 52 53 54 55 56 57 58 59 60 61 61 61 61 62 63 63 63 63 62 61 60 60 61 59 55 54 53 53 55 56 57 56 56 56 57 56 56 55 52 60 77 86 83 80 82 86 86 85 81 73 68 70 74 74 74 81 90 97 101 101 100
83 73 63 56 51 45 39 36 37 36 35 37 37 38 40 42 44 46 46 47 49 50 50 52 53 54 55 56 57 58 59 61 62 62 63 63 63 65 66 66 67 67 66 65 64 65 65 63 59 56 54 54 55 56 57 58 57 57 58 56 56 55 52 59 78 91 90 91 95 95 92 89 85 82 80 80 79 84 92 97 99 100 100 100 100
74 62 56 51 46 40 34 34 37 37 36 38 39 40 41 43 45 47 47 48 50 51 52 53 54 55 56 56 57 57 58 60 62 63 64 64 64 66 66 67 69 70 70 70 69 68 69 68 66 63 59 58 60 60 60 61 61 61 61 60 60 57 52 54 65 74 79 88 96 97 96 98 97 95 95 95 94 96 100 100 100 101 100 100 100
62 55 52 47 40 36 33 33 36 38 38 40 41 42 43 44 46 48 48 50 51 52 53 55 54 55 57 56 56 56 56 58 60 62 64 65 66 67 66 66 68 69 71 72 71 71 72 71 70 69 67 66 66 65 64 63 64 66 67 68 71 71 67 66 67 69 70 74 78 80 82 84 84 83 85 87 86 86 87 89 92 94 92 89 84
54 52 49 42 36 34 32 33 36 39 40 41 42 44 45 46 48 50 50 51 53 53 54 54 55 55 55 55 55 54 53 54 55 57 60 61 63 66 65 63 65 68 69 70 69 70 71 72 72 73 73 73 73 72 73 72 73 76 77 79 81 80 77 76 74 72 72 72 72 74 77 79 79 78 78 79 78 76 75 76 77 77 74 70 66
51 49 44 38 34 33 33 34 36 39 40 42 43 45 47 48 49 51 52 51 52 54 54 53 54 54 53 53 53 52 51 51 51 52 54 55 57 60 61 60 62 67 69 68 67 67 67 69 73 75 77 80 80 78 79 78 77 77 76 75 76 75 75 77 78 77 78 79 80 82 83 84 85 84 83 83 83 82 82 81 80 78 74 71 70
48 44 38 35 33 33 35 35 37 39 41 42 44 46 49 50 50 52 53 52 52 53 52 51 51 51 50 50 49 49 51 52 51 52 53 54 56 59 61 59 60 64 67 67 66 65 63 67 73 78 85 92 90 85 84 83 79 78 79 81 82 84 89 93 93 91 87 84 82 82 81 79 79 78 78 80 80 81 82 83 83 83 82 82 82
43 38 34 34 33 35 36 36 39 41 42 43 45 47 50 51 51 52 53 52 53 51 48 47 48 47 47 48 48 50 52 54 55 56 57 57 56 58 63 66 65 65 68 71 71 70 74 82 89 92 96 99 98 96 95 92 87 88 94 97 96 96 99 101 99 96 95 93 92 93 92 88 84 81 79 78 76 77 79 81 82 85 87 87 86
37 34 34 34 35 37 38 38 41 43 44 45 46 48 51 52 51 52 53 53 53 51 46 44 44 45 47 49 51 53 55 57 59 61 63 63 57 50 51 60 68 69 69 73 77 80 84 90 94 96 99 101 100 100 99 96 95 98 100 99 96 92 90 91 93 96 100 102 101 100 99 98 97 96 93 88 86 85 86 87 89 92 95 94 93
Wind_Speed
9 11 11 10 10 9 10 11 12 13 13 14 15 16 17 18 20 20 21 22 23 24 24 25 25 26 26 27 28 29 30 31 32 33 33 33 34 34 33 33 33 34 34 35 36 37 38 40 41 41 42 41 40 39 38 38 38 38 38 37 37 37 35 33 34 35 37 38 39 38 36 35 34 33 31 29 28 27 26 25 25 25 25 26 26
13 12 11 10 10 9 10 11 11 12 11 13 15 16 17 19 20 21 21 23 24 25 26 27 27 28 29 30 31 32 33 34 35 36 37 37 37 37 37 37 37 36 37 37 38 39 40 41 42 43 43 41 39 38 37 37 36 36 36 35 34 35 34 33 33 33 33 34 35 38 37 31 29 28 25 24 23 23 23 23 23 24 24 23 24
14 12 11 11 11 11 12 11 11 12 12 13 14 15 17 19 20 21 22 24 25 26 28 29 29 30 32 33 34 35 36 37 38 39 40 41 41 40 40 40 39 39 39 39 39 40 40 41 43 43 42 40 39 37 37 36 36 35 34 34 33 32 31 31 31 30 30 30 29 30 30 26 24 24 21 20 20 20 20 21 22 23 23 23 23
15 13 12 12 13 13 13 13 13 14 15 14 14 15 16 18 19 21 22 25 26 28 30 30 32 33 34 35 37 38 39 39 41 42 43 43 43 43 43 42 42 42 41 41 40 40 40 41 41 40 38 37 37 36 36 36 36 36 35 34 32 31 30 28 27 26 27 27 23 21 22 22 22 21 18 15 15 17 18 19 20 20 21 22 22
19 16 14 14 15 15 14 15 15 16 17 17 16 16 18 19 20 21 23 25 27 29 31 32 34 35 37 38 39 40 41 42 43 44 44 44 44 44 44 43 44 43 42 42 41 41 40 40 39 37 35 34 34 34 35 35 36 36 36 34 32 32 31 29 26 24 24 24 22 21 19 17 17 19 19 16 14 16 18 20 21 21 21 21 21
22 19 17 16 16 15 15 15 16 17 18 18 18 19 21 22 22 22 24 25 26 28 31 34 36 37 38 40 41 42 43 43 43 44 45 46 46 45 45 46 46 45 43 42 41 41 40 39 37 35 33 32 32 32 33 34 35 35 35 35 33 31 31 30 27 24 22 22 23 23 20 19 21 23 22 18 16 17 17 19 21 21 21 21 21
21 20 18 18 17 17 17 16 18 19 20 21 22 24 25 26 26 26 26 26 27 29 31 34 37 38 40 41 42 43 44 43 42 44 47 47 47 48 48 48 47 46 45 44 42 41 40 38 37 34 32 30 30 31 31 33 34 34 35 34 33 31 30 30 29 26 23 22 23 23 22 24 26 26 23 21 21 22 21 20 20 21 22 21 21
19 18 18 18 19 20 20 20 21 22 22 24 25 27 29 30 31 31 31 31 31 31 33 35 37 39 41 43 43 44 45 44 43 46 48 49 49 50 51 50 50 48 47 45 43 42 40 39 37 35 32 30 29 30 30 31 32 33 34 34 33 32 30 30 29 27 25 23 23 23 23 23 24 25 25 23 23 27 28 24 23 24 24 23 24
16 16 16 17 19 20 22 23 24 25 26 28 30 31 33 35 36 37 37 37 37 36 37 37 39 40 42 44 45 45 46 46 46 49 50 51 52 52 53 53 52 50 49 47 45 43 42 40 38 36 33 30 29 29 29 30 31 31 32 33 33 32 31 30 29 27 26 24 23 23 24 24 24 24 24 24 24 27 31 30 27 28 27 26 27
12 13 14 16 18 19 21 22 22 23 26 29 30 31 34 36 38 40 41 41 42 42 43 43 43 44 45 45 46 46 47 47 49 51 51 52 54 54 54 55 54 52 51 48 47 45 43 41 38 36 33 30 28 28 28 29 30 30 31 31 32 32 31 30 29 28 27 25 24 24 25 24 24 23 23 23 23 24 28 31 29 29 30 29 27
10 12 14 16 16 16 18 19 19 19 22 24 26 28 30 32 34 36 37 37 39 41 45 47 48 49 49 49 49 49 49 50 52 53 53 54 55 55 55 56 55 54 52 50 49 46 43 40 37 34 32 29 28 27 28 28 29 29 30 30 30 30 30 30 29 29 28 26 25 24 25 25 25 25 23 23 24 24 27 30 30 29 31 32 30
11 12 13 13 13 13 15 16 18 19 21 23 24 26 26 27 28 30 30 30 32 35 39 43 46 49 51 52 54 54 53 54 55 56 56 56 57 57 57 57 57 56 54 52 51 48 43 39 35 32 30 28 28 28 28 29 29 29 29 30 30 29 29 29 29 29 28 27 26 24 25 25 25 25 24 24 25 25 26 30 31 30 31 34 32
10 11 11 11 12 13 14 16 18 19 20 22 23 24 24 24 25 27 28 27 28 31 34 37 40 43 45 49 52 54 55 55 56 57 57 58 58 59 59 59 59 57 56 55 52 46 40 36 34 32 29 27 28 29 29 29 29 29 29 29 29 29 28 28 29 29 28 28 27 25 25 25 25 25 25 25 25 26 27 30 31 29 31 34 33
9 10 10 10 11 13 15 16 17 18 19 20 21 22 24 24 25 27 28 27 27 28 31 33 35 37 39 42 45 48 50 52 53 55 55 56 57 58 59 58 58 57 56 54 48 42 38 35 33 30 27 26 27 29 30 30 29 29 29 29 28 28 28 28 29 28 28 28 27 26 26 26 26 25 25 25 25 25 26 28 29 30 31 33 32
9 9 9 9 11 12 14 14 15 17 18 19 20 22 23 25 25 26 28 28 27 27 28 30 31 32 34 36 38 40 42 45 47 49 50 51 53 54 56 55 55 54 52 47 41 37 34 32 30 28 25 24 25 27 29 29 29 30 29 28 27 27 27 28 29 29 28 28 27 27 27 26 26 25 25 25 25 25 26 26 27 29 30 32 32
9 9 8 9 10 11 12 14 15 17 18 19 20 21 22 23 24 24 26 27 27 27 27 27 28 30 30 31 33 34 36 39 41 42 43 45 48 50 52 53 53 53 50 44 39 35 31 28 26 25 24 24 25 26 27 28 29 29 29 28 26 25 26 28 28 29 28 28 27 27 27 27 26 25 25 25 25 25 26 25 25 25 27 30 31
9 8 9 9 10 12 13 15 16 17 17 18 18 20 21 22 23 24 25 27 27 27 28 28 29 30 31 31 32 33 34 35 37 39 39 41 45 47 48 50 51 51 50 44 39 36 31 27 25 24 25 25 25 26 27 27 28 29 29 28 26 25 25 27 28 28 28 28 27 27 27 27 26 25 25 25 25 25 25 25 25 24 24 26 27
8 7 7 9 12 13 14 14 15 15 16 17 18 19 20 22 25 27 29 30 31 31 31 32 32 34 35 35 35 35 36 36 37 38 38 40 43 45 47 49 49 49 48 42 37 35 31 26 23 23 23 24 25 27 27 27 27 28 28 28 27 25 25 26 27 27 28 27 28 27 27 27 26 25 25 25 25 25 25 25 25 24 24 26 26
6 6 8 11 12 13 13 14 14 15 16 17 19 21 24 28 31 33 34 34 34 35 36 37 37 37 38 39 38 38 37 37 38 38 38 39 41 44 46 47 47 47 44 37 35 32 27 22 21 20 21 23 25 26 27 27 27 27 28 28 27 26 25 26 26 27 27 27 28 27 27 27 26 25 25 25 25 25 25 25 25 25 24 25 26
6 8 9 11 11 12 13 14 15 16 18 20 23 28 31 34 35 35 36 36 37 38 39 40 40 39 39 39 38 37 37 36 36 36 36 38 40 42 44 45 45 44 38 32 30 26 21 19 18 18 20 21 23 24 25 25 25 26 27 28 27 26 25 26 26 26 27 27 27 27 26 26 25 25 25 25 25 24 24 24 24 24 24 25 25
7 8 9 11 11 12 13 14 16 18 22 26 30 33 35 36 36 36 36 37 37 36 35 35 35 35 35 36 36 36 36 36 36 35 35 35 36 39 41 41 40 37 31 27 24 20 17 17 17 18 19 20 22 23 24 24 25 26 26 27 27 26 26 26 26 26 27 27 26 26 26 25 24 25 25 24 24 23 23 24 24 24 25 24 25
7 7 9 10 11 12 14 16 20 23 27 31 33 35 35 35 35 34 34 33 32 31 30 30 30 30 31 32 32 34 35 35 35 34 33 32 32 34 36 36 33 27 23 21 18 16 16 17 18 19 19 20 21 22 23 24 25 25 25 26 26 26 26 26 26 27 27 26 26 26 26 25 24 24 24 24 23 22 23 24 23 24 25 24 24
6 7 9 10 12 14 17 20 24 28 30 32 33 34 34 33 32 31 29 28 27 27 27 28 28 28 29 30 30 31 32 32 31 29 27 25 25 28 30 28 23 18 16 15 15 16 17 18 18 19 20 20 21 22 23 24 24 24 25 26 26 26 26 25 25 27 26 26 25 25 25 24 23 24 24 23 22 22 22 23 23 23 24 24 23
7 9 11 12 14 17 20 24 27 30 31 31 31 31 31 30 28 27 26 25 25 26 26 25 25 26 27 28 28 27 27 26 24 22 21 20 21 22 21 17 13 12 13 14 16 17 17 18 19 19 20 21 21 22 23 23 23 23 24 26 26 26 26 26 26 26 26 26 25 24 24 23 22 23 23 22 22 22 22 22 23 22 23 23 22
10 12 13 14 17 19 22 26 28 29 29 29 29 30 29 28 26 24 23 24 25 25 25 24 24 25 26 26 26 25 24 22 20 19 17 17 16 13 10 8 9 12 14 16 17 17 18 18 19 19 20 21 21 21 22 22 22 23 25 26 26 27 26 26 26 26 26 25 24 24 23 22 22 23 22 21 21 21 21 21 22 21 21 21 22
11 12 13 15 18 20 23 25 26 26 27 28 29 28 27 27 25 22 22 24 25 24 24 24 24 24 24 24 23 23 23 22 20 18 15 13 11 9 8 10 12 15 16 17 17 18 18 18 19 20 20 21 21 21 22 22 23 24 26 27 27 27 27 26 27 26 26 25 24 24 23 22 22 23 22 21 20 20 20 20 20 19 19 20 21
12 12 13 16 18 21 23 24 25 26 28 29 28 27 27 26 25 22 22 22 22 22 22 22 22 22 22 22 21 21 20 19 17 16 14 12 12 12 13 15 16 17 17 18 18 18 18 18 19 20 20 20 21 21 22 23 24 26 27 28 28 28 27 27 26 26 25 24 24 23 23 22 22 22 22 21 20 20 20 20 19 18 18 19 21
12 12 15 18 20 22 23 24 26 28 29 28 26 26 26 25 24 22 20 20 20 20 20 19 19 19 20 20 20 20 19 18 17 16 15 16 16 17 17 17 18 18 18 18 17 17 17 18 19 20 20 20 21 22 23 24 26 28 28 29 28 28 27 27 26 25 24 24 24 23 23 22 21 21 21 20 21 20 19 19 19 18 19 20 21
12 14 16 19 20 21 23 26 27 28 28 27 25 26 25 24 23 20 18 19 19 18 18 17 18 18 19 20 20 20 19 18 17 17 16 16 16 17 17 17 17 17 17 16 16 17 18 18 19 19 20 21 22 23 25 26 28 29 29 28 27 26 26 26 25 25 24 23 23 23 23 21 20 20 20 20 20 19 19 19 18 18 19 21 22
12 15 16 18 19 22 24 26 27 27 26 25 25 25 24 23 22 19 17 18 18 17 17 17 18 19 20 21 22 21 20 18 17 17 17 17 16 16 16 16 16 15 15 15 16 17 18 19 19 20 21 22 24 25 27 28 28 28 27 27 26 25 25 25 25 24 24 23 23 22 20 18 18 18 19 20 19 18 18 19 19 19 21 22 22
13 15 16 18 21 22 23 24 25 25 25 25 25 25 23 22 21 19 18 18 17 16 17 18 19 21 22 23 22 20 19 18 17 17 17 17 17 16 16 16 15 15 15 16 17 18 19 20 20 21 22 24 25 26 27 28 27 26 25 25 26 26 26 26 26 25 24 23 21 20 19 18 17 18 19 20 20 19 19 19 20 21 22 22 23
14 16 17 20 21 21 22 23 24 24 24 24 25 24 22 21 20 19 18 17 16 17 17 19 20 22 23 22 21 20 19 17 17 17 16 16 16 16 16 16 16 16 17 17 18 19 20 21 22 23 24 25 26 26 27 27 26 25 23 23 24 26 27 27 27 26 25 23 22 22 22 22 21 21 22 22 22 22 21 21 21 22 22 23 23
15 17 18 19 20 21 23 24 23 23 23 24 24 22 21 20 19 18 17 17 17 17 18 20 21 22 22 21 21 20 19 18 17 17 17 17 17 17 17 17 17 18 19 20 20 21 22 22 23 25 25 26 27 27 27 27 26 24 23 22 23 25 26 27 27 26 25 24 24 24 25 26 25 24 25 25 26 25 24 24 24 24 25 25 24
15 17 18 19 21 22 23 23 22 22 23 23 21 20 19 18 17 17 17 17 17 18 19 19 20 20 21 20 20 20 19 19 18 18 18 18 18 18 18 18 19 19 20 21 22 23 23 24 25 26 27 28 28 28 27 26 25 24 22 20 21 24 26 26 26 26 25 25 26 27 27 28 27 27 27 27 27 27 27 27 27 27 26 26 25
16 17 19 21 22 23 22 21 21 22 22 21 19 19 18 17 17 17 16 17 18 18 18 19 19 19 20 20 20 20 20 20 19 19 20 19 19 19 19 19 20 21 21 22 23 24 24 25 26 27 28 29 28 27 26 25 24 23 22 21 23 26 28 29 29 28 28 29 30 30 31 30 30 29 28 27 27 27 28 28 28 28 27 27 27
17 19 21 23 23 23 21 21 21 21 21 19 18 18 18 17 17 17 17 17 18 18 18 19 19 19 20 20 21 21 21 21 21 21 21 21 21 21 21 21 22 22 22 23 23 24 25 25 26 27 28 29 28 26 25 24 24 23 22 23 25 28 29 31 31 31 31 32 31 31 32 32 31 30 28 27 27 27 27 28 27 27 27 27 27
19 21 22 22 22 21 20 21 20 20 19 18 17 17 17 17 17 17 17 17 18 18 19 19 19 19 20 20 21 22 22 22 23 23 23 23 23 23 23 23 24 24 24 24 24 25 25 26 27 27 28 29 28 25 24 24 24 23 23 25 27 29 30 31 32 32 33 33 33 33 33 33 32 31 29 27 25 25 26 27 27 27 27 27 27
20 21 22 21 21 20 20 20 19 19 18 17 17 17 17 17 17 17 17 18 18 19 19 19 20 20 20 21 21 22 23 23 24 24 25 25 25 24 24 24 25 26 26 26 26 26 27 27 28 28 28 29 29 26 24 24 24 23 24 25 28 29 31 32 32 33 34 33 33 32 31 31 32 30 28 26 24 23 24 26 26 27 28 28 27
20 21 21 21 21 20 19 19 18 17 17 17 17 17 17 17 18 18 18 19 19 19 19 20 20 21 21 22 22 23 24 24 25 25 25 26 26 25 26 25 26 26 27 27 27 28 28 28 28 29 29 29 29 27 25 24 24 24 24 25 27 28 30 31 32 33 34 33 32 31 30 29 29 28 26 24 22 22 24 25 24 26 28 29 28
20 21 21 21 21 20 19 18 17 16 17 17 17 17 18 18 18 18 19 19 19 20 20 21 21 21 22 23 23 24 25 25 26 26 26 26 26 26 26 26 27 27 27 28 28 28 29 28 27 28 28 28 29 28 25 24 24 24 24 24 26 28 29 31 32 33 33 33 32 30 28 27 26 25 24 23 22 22 24 25 26 28 31 31 30
20 21 21 21 21 20 18 17 16 16 17 17 17 17 18 18 18 19 19 20 20 21 21 21 22 22 23 24 24 25 25 26 26 27 27 27 26 26 27 27 27 28 28 28 28 28 29 28 27 27 28 27 27 27 26 25 24 24 24 24 26 28 29 31 32 32 32 32 30 29 27 25 25 25 25 25 24 23 24 26 27 29 30 30 29
21 21 22 20 19 18 17 16 16 16 16 17 17 18 18 18 18 19 20 20 21 21 22 22 23 23 24 24 25 25 26 26 26 27 28 28 27 27 27 27 28 28 29 29 29 28 29 29 27 27 27 26 26 26 26 25 24 24 24 24 26 28 28 28 29 30 30 30 30 29 28 26 26 26 26 25 23 23 22 23 24 25 26 28 28
21 21 21 19 18 17 16 15 15 16 17 17 17 18 18 18 19 19 20 20 21 21 22 23 23 24 24 25 25 25 26 26 26 27 28 28 28 27 27 27 28 29 29 30 30 29 29 30 29 28 27 26 25 24 25 25 25 25 26 26 26 27 26 26 27 28 29 29 29 29 29 30 29 28 26 23 21 21 21 22 24 22 21 24 24
22 21 20 18 17 17 16 15 15 16 17 17 18 18 18 18 19 20 20 21 21 22 22 23 23 24 24 25 26 26 26 26 26 27 28 28 28 28 28 27 27 28 30 30 30 29 30 31 31 29 27 25 24 24 24 25 26 26 27 27 27 26 25 25 26 28 29 29 29 30 31 31 30 29 27 24 23 23 24 25 25 22 22 23 24
21 20 18 17 17 16 15 15 15 16 17 17 18 19 19 19 19 20 21 22 22 22 23 23 24 24 25 25 26 26 26 27 27 27 28 28 28 28 28 28 28 28 29 30 30 30 30 31 31 31 29 26 24 24 25 25 25 26 26 26 27 27 27 26 27 29 30 30 31 31 31 30 29 29 28 28 28 28 28 29 29 28 29 30 30
19 18 17 16 16 16 15 15 15 15 17 17 18 19 20 20 20 21 22 23 23 24 24 24 24 25 25 26 26 26 26 27 26 27 28 28 28 29 29 29 28 28 28 29 29 30 30 31 31 30 30 28 26 26 26 25 25 25 26 26 26 27 27 27 28 29 31 31 32 32 32 32 32 32 32 32 33 33 33 33 33 33 34 34 34
17 16 16 16 15 16 15 15 14 15 17 18 18 19 20 20 21 22 23 24 24 25 25 25 25 25 25 26 27 27 26 26 26 27 27 27 27 28 29 29 29 28 29 29 30 30 30 30 30 30 29 29 28 26 26 25 25 25 27 27 28 28 28 29 30 31 31 32 32 33 33 32 32 32 32 33 33 33 33 33 33 33 34 34 34
16 15 15 15 15 15 15 15 15 15 17 18 18 19 20 21 21 22 23 24 25 26 26 26 26 26 26 26 26 27 27 26 26 26 26 27 27 27 28 28 28 28 29 29 29 30 29 28 28 28 27 28 28 27 27 27 28 28 29 29 29 29 28 27 28 28 29 29 30 30 30 30 30 30 31 31 31 31 31 31 32 32 33 33 33
14 14 14 14 15 15 15 15 15 16 17 18 18 19 20 21 22 23 23 24 25 26 26 26 26 26 26 26 27 27 27 27 27 27 27 27 27 28 29 28 27 27 28 29 29 30 29 28 27 27 27 29 31 31 31 32 32 32 31 30 28 27 26 26 27 27 28 29 30 30 31 31 30 30 31 31 31 31 31 31 32 32 33 33 34
13 14 14 14 14 15 16 16 16 16 18 19 19 19 20 22 22 23 24 25 26 26 26 26 26 27 27 27 28 28 28 28 29 29 29 29 28 28 29 30 30 28 27 28 29 29 28 28 29 30 30 32 34 35 35 34 33 30 28 27 27 27 27 28 29 29 29 31 33 34 34 35 34 34 34 34 34 34 34 34 34 33 34 34 35
13 14 14 14 14 15 16 16 16 17 18 19 20 20 21 22 23 24 24 25 26 27 27 27 27 27 28 28 29 29 29 29 30 30 31 32 32 30 29 29 30 30 28 27 27 27 26 25 27 30 31 31 32 33 32 31 30 28 28 29 30 30 30 31 32 32 33 35 36 36 37 37 37 37 37 37 36 35 35 35 34 34 34 34 35
Wind_Direction
279 275 277 282 280 284 289 291 294 295 296 294 291 289 287 285 283 282 281 279 279 278 278 278 276 277 277 277 279 279 280 281 282 283 285 286 288 289 291 293 295 298 301 304 307 310 313 315 316 316 314 311 307 302 299 296 294 293 292 291 291 290 289 288 288 288 288 288 287 285 285 286 287 287 286 285 283 282 280 278 276 275 274 274 273
279 278 278 279 280 284 287 290 295 299 300 296 296 295 290 287 287 285 282 279 279 278 277 277 277 277 277 278 279 280 281 283 284 285 286 287 289 290 292 293 296 298 301 304 306 309 312 314 315 315 313 310 306 302 299 297 295 294 292 291 290 290 290 290 289 289 290 291 292 290 289 290 288 285 283 280 278 276 275 272 270 269 268 267 267
275 274 271 271 273 273 277 285 290 294 295 293 295 296 292 290 291 288 284 281 281 278 276 277 276 275 276 276 277 278 279 280 282 283 285 286 288 289 291 293 295 297 299 302 304 307 310 312 314 313 311 308 305 303 300 298 296 295 294 292 291 290 289 289 289 290 290 291 294 293 293 295 291 284 280 276 274 271 267 265 263 261 261 261 261
272 272 267 264 266 269 275 282 285 290 294 294 295 296 295 294 293 290 286 283 282 280 279 277 275 274 275 275 276 277 278 278 279 281 283 284 286 287 289 291 292 294 297 299 301 304 307 310 311 309 307 306 305 303 300 298 296 295 294 293 292 291 289 287 286 288 288 289 290 287 288 291 287 283 278 270 265 262 258 258 258 256 256 255 256
269 269 267 265 266 270 277 282 286 292 299 302 300 296 296 296 294 290 287 284 283 281 280 278 276 276 276 277 277 278 279 280 281 283 284 284 285 286 287 288 290 292 294 296 298 301 304 306 307 306 305 305 305 303 301 298 296 294 292 291 291 291 289 288 286 284 283 284 282 279 279 279 274 277 282 279 265 257 255 255 254 253 253 252 252
270 271 273 272 272 276 281 287 291 297 306 309 303 296 295 295 293 290 288 287 286 283 280 277 277 277 278 278 279 280 282 283 286 289 288 285 285 286 286 287 288 290 292 293 295 297 300 302 302 301 303 304 305 304 302 299 296 293 291 290 289 288 288 288 287 284 281 278 276 274 270 267 268 273 281 281 269 260 255 253 252 250 249 248 249
275 279 280 279 280 283 286 295 297 300 308 308 301 297 296 295 293 290 288 287 286 284 280 278 277 278 278 279 280 281 282 287 291 292 290 287 286 285 285 286 287 288 289 290 292 294 296 297 297 297 299 301 303 303 301 298 295 292 290 289 287 286 285 285 285 283 280 276 274 272 268 266 268 271 272 273 273 268 258 252 253 253 252 250 249
282 287 292 292 292 292 294 299 300 302 308 306 302 302 299 297 294 289 287 286 286 284 281 279 279 279 279 279 280 281 283 287 290 290 289 288 286 285 286 286 286 287 287 288 289 291 292 292 292 292 294 297 299 300 299 296 293 290 288 287 286 284 283 282 282 281 279 275 272 270 268 266 266 268 269 269 271 271 267 260 254 253 254 256 256
293 298 308 311 311 308 306 304 304 307 308 306 306 306 304 301 298 293 290 289 287 285 283 282 281 280 280 279 281 282 284 286 288 287 288 288 287 286 286 286 285 285 285 286 287 288 288 288 288 287 289 291 293 296 296 294 291 288 286 285 284 283 282 281 280 279 277 274 271 268 267 266 265 265 267 265 265 269 273 271 264 260 259 258 259
317 318 326 330 331 329 323 319 320 320 317 314 313 313 311 308 305 301 298 296 293 288 285 284 283 282 281 281 283 284 286 287 286 286 287 288 287 287 287 286 285 284 284 285 285 284 284 284 283 283 284 286 288 291 292 291 289 286 284 282 281 280 279 279 278 277 276 274 271 268 267 266 265 263 263 264 264 264 268 274 275 273 270 266 264
348 342 344 345 344 342 337 333 332 330 326 324 321 319 317 315 313 310 308 307 303 297 292 289 287 284 283 284 284 286 287 287 285 287 288 288 288 288 288 286 285 284 283 282 281 281 280 279 279 280 280 281 283 286 287 287 286 284 282 280 279 278 277 276 275 275 275 273 271 269 268 267 266 265 263 262 263 262 265 271 273 275 276 274 273
2 355 351 347 341 338 336 332 331 331 330 328 324 321 321 321 321 318 316 318 317 311 304 299 295 291 289 288 287 287 287 285 285 287 288 287 288 289 288 287 286 283 281 279 278 277 276 277 277 277 278 280 281 283 283 283 282 281 280 278 278 277 276 275 274 273 273 272 271 269 268 268 267 268 267 265 264 265 267 270 273 277 278 277 277
4 353 343 339 336 334 333 332 333 333 330 326 322 320 320 321 323 320 319 324 325 320 315 311 306 302 299 296 293 291 289 287 287 288 289 289 289 289 289 288 286 283 281 279 277 275 274 274 274 274 275 277 280 281 281 281 280 279 278 277 276 276 275 274 273 272 271 271 271 269 268 268 268 268 269 268 268 268 269 272 276 279 279 280 282
351 337 337 339 338 337 337 336 332 327 324 320 316 314 314 315 317 317 316 320 323 320 318 316 312 311 309 305 301 298 296 294 293 292 293 292 291 291 289 287 285 283 282 280 277 274 272 271 270 269 270 272 276 279 281 281 281 279 278 277 276 275 274 273 272 271 271 270 269 269 268 268 268 268 268 269 269 269 270 273 277 279 280 282 284
333 334 345 346 345 343 338 331 323 317 316 314 311 310 310 311 313 315 314 316 318 317 316 315 314 314 313 311 309 307 305 302 300 299 298 297 296 292 288 286 284 282 281 278 276 273 271 270 268 267 267 269 273 276 279 281 281 281 279 277 276 275 273 272 271 270 270 269 269 268 268 267 267 268 268 268 268 268 270 272 276 281 284 285 287
333 344 354 352 347 336 324 317 314 314 314 312 312 311 311 311 312 313 314 315 316 315 314 314 313 313 313 313 313 312 310 307 306 305 304 303 300 294 290 289 286 283 280 276 271 269 269 269 269 268 268 268 271 274 276 279 280 281 280 278 276 274 272 271 269 269 269 268 268 267 267 267 267 267 267 267 267 268 269 270 272 277 283 287 291
340 353 355 341 325 315 313 315 314 314 313 313 314 313 314 315 314 315 315 314 314 314 313 313 313 311 311 312 312 311 310 309 309 308 308 307 301 297 296 293 289 286 281 275 268 264 264 265 266 267 269 271 273 274 276 277 279 280 280 279 277 274 272 270 269 268 267 268 268 267 267 267 266 265 265 266 266 266 267 269 270 272 276 281 286
348 350 333 315 312 314 316 316 313 314 315 316 318 318 319 320 320 320 319 317 316 315 314 313 313 312 311 311 310 310 309 309 308 307 308 306 303 301 298 294 290 286 280 274 266 261 261 262 263 266 270 272 274 275 276 277 278 279 280 279 278 275 272 270 269 268 267 267 267 267 266 266 266 265 265 264 265 265 266 267 269 270 271 273 277
340 314 306 309 314 316 313 312 312 314 316 317 319 320 320 320 319 318 315 314 313 312 311 312 312 312 312 311 310 309 308 307 305 305 304 303 304 302 296 292 289 284 279 272 262 259 262 265 267 268 269 271 273 274 276 277 278 279 280 280 279 277 274 271 269 268 267 266 265 265 266 265 265 265 265 264 264 264 265 266 267 268 268 270 272
307 299 308 313 311 310 310 313 316 318 319 319 320 320 320 319 317 315 313 312 311 310 311 311 311 312 312 312 311 309 308 305 303 302 302 302 303 301 296 292 288 283 277 268 259 261 268 272 273 273 272 273 274 275 276 278 279 279 280 281 279 278 275 273 272 269 267 266 265 265 265 265 265 265 264 264 264 264 265 265 266 266 266 268 269
291 300 305 303 303 306 311 314 317 319 319 320 322 322 321 321 319 319 318 316 316 316 317 317 317 317 316 314 312 311 309 308 306 303 302 302 303 303 299 293 286 281 274 263 260 269 278 280 282 281 280 279 278 278 279 279 280 281 282 281 280 279 277 275 273 271 269 267 266 265 265 265 265 265 264 264 264 264 264 264 264 265 265 266 268
284 296 296 298 306 311 314 317 318 320 322 324 325 325 325 325 324 323 323 323 324 326 328 329 329 327 324 321 318 315 313 312 311 308 304 303 304 303 297 290 286 281 269 261 269 282 286 286 287 286 285 284 282 281 280 280 281 282 282 282 282 281 279 276 274 272 271 269 267 266 266 265 265 265 264 263 263 262 262 263 263 264 266 266 268
285 295 298 306 314 315 318 320 322 326 327 328 328 328 328 329 329 328 329 330 331 333 335 336 336 336 334 331 327 322 319 316 315 314 312 310 309 304 298 293 289 277 264 271 286 290 288 288 288 287 287 285 283 282 281 281 281 281 281 283 284 283 281 278 275 274 273 270 268 267 266 266 265 264 264 263 263 262 261 262 263 264 266 268 268
292 298 303 310 312 314 319 323 326 328 329 330 331 331 331 332 334 335 334 335 335 336 338 339 340 342 341 340 339 336 333 329 328 330 331 327 319 312 305 297 283 269 275 289 292 288 287 286 286 288 288 286 284 282 281 280 280 281 283 284 285 284 282 279 277 275 274 272 270 268 268 267 266 264 263 263 262 262 261 262 263 263 265 268 269
294 296 302 307 310 316 322 325 328 329 331 333 333 332 333 336 339 340 336 335 336 335 337 339 340 342 343 345 347 349 353 356 357 358 353 343 332 324 316 298 283 287 294 293 289 287 287 287 288 289 288 286 284 281 280 280 280 283 285 286 286 284 282 281 279 277 275 273 272 271 270 269 267 265 264 264 262 262 261 261 262 263 265 267 268
293 297 303 309 316 323 326 328 330 332 333 333 333 333 335 338 342 341 334 332 334 335 336 339 340 341 342 344 347 352 358 4 9 10 5 356 346 335 320 306 301 299 295 291 290 288 287 287 288 288 287 285 283 281 280 281 283 285 287 288 286 284 282 281 279 277 275 274 273 272 271 269 268 268 267 265 263 262 261 262 263 264 266 268 268
292 298 306 315 324 326 327 330 331 332 331 330 331 334 336 340 342 339 332 330 332 335 337 339 340 340 341 342 345 347 349 350 351 351 346 337 327 317 308 303 300 296 294 292 290 287 286 286 286 285 285 283 281 281 281 282 284 286 288 288 286 285 283 281 279 277 276 275 273 272 271 270 269 269 269 267 264 263 263 263 265 266 268 269 270
289 298 309 319 325 325 327 329 328 327 327 328 331 334 337 340 339 337 334 332 333 335 337 337 336 336 339 341 342 341 338 335 331 326 321 315 310 306 301 298 295 293 291 289 287 286 286 285 284 284 284 283 282 281 281 283 285 287 288 287 286 285 283 281 278 277 276 275 273 272 272 272 271 269 268 266 265 265 267 267 268 269 269 269 271
287 301 313 320 323 324 326 325 324 324 325 328 331 334 337 338 337 338 336 332 333 336 335 334 333 334 338 340 340 338 334 329 322 316 311 307 302 299 296 293 292 289 287 287 287 287 286 286 286 286 284 284 282 281 282 284 285 286 286 286 286 284 282 280 279 278 276 274 273 274 274 274 273 269 266 266 266 267 270 270 269 268 267 269 271
293 306 316 319 321 322 322 321 322 323 325 327 330 334 337 337 337 338 335 332 334 334 331 331 332 334 338 338 338 339 336 331 325 318 313 308 304 300 296 293 291 288 286 286 285 284 285 285 285 283 282 281 279 280 281 282 283 285 288 289 289 286 284 282 280 278 276 274 273 274 274 272 269 267 265 265 266 269 271 271 270 268 269 271 272
299 309 315 318 318 318 318 320 321 322 323 326 329 334 336 334 335 337 335 334 334 330 328 330 331 333 335 337 338 339 337 334 329 323 318 314 311 307 303 298 294 289 285 283 282 281 282 282 281 280 278 277 277 278 279 281 283 286 287 286 286 286 286 286 286 284 283 281 279 277 274 270 267 267 267 267 269 273 276 277 277 276 275 275 276
301 309 314 315 315 316 318 319 319 319 321 324 329 333 333 332 334 336 335 333 329 327 328 328 330 331 333 335 337 337 336 333 329 326 322 318 314 311 307 302 296 290 286 283 282 281 281 281 280 279 278 278 278 279 280 283 286 287 285 281 280 280 281 283 284 285 285 285 283 282 280 277 274 274 274 275 277 280 281 280 279 278 275 272 270
302 308 312 312 312 315 316 316 315 316 319 323 327 329 329 329 332 333 331 328 326 326 327 327 328 330 331 333 334 333 333 331 328 326 323 320 316 312 308 304 298 293 288 285 284 283 281 281 280 280 280 280 280 282 284 286 288 287 284 281 279 278 277 277 277 278 279 280 279 279 280 280 279 279 280 282 284 285 284 282 280 277 273 269 266
303 308 310 310 311 313 313 312 312 313 317 322 324 325 325 326 329 330 328 326 325 325 326 326 327 328 328 329 329 329 329 327 326 323 321 319 316 312 309 305 299 295 291 288 285 283 282 281 281 281 281 281 282 285 286 288 288 285 282 278 275 275 277 276 273 271 271 270 270 271 273 275 276 278 280 282 283 284 284 283 282 279 275 273 269
304 307 308 308 309 310 309 308 310 312 316 320 322 322 323 325 328 329 327 326 325 325 325 326 326 326 326 326 325 325 325 323 322 320 318 316 314 311 309 305 300 297 294 291 288 286 284 283 282 282 282 283 285 287 288 287 285 281 278 273 267 267 270 270 269 269 268 267 268 270 272 273 275 276 278 278 278 279 280 281 280 279 277 274 271
304 306 306 307 307 307 307 307 309 312 315 319 320 320 323 326 328 328 327 326 325 325 325 325 325 325 324 323 322 321 321 320 319 317 316 314 312 310 308 305 302 299 296 293 291 289 287 286 285 284 284 285 287 288 288 287 284 281 277 271 265 264 264 266 267 269 270 270 272 273 274 276 277 278 277 276 276 278 279 279 278 276 275 272 270
303 304 304 306 306 305 305 305 308 312 314 317 319 320 323 326 326 325 325 324 324 324 324 324 323 322 321 320 319 318 318 318 317 316 315 313 312 310 308 306 303 301 299 296 294 292 290 289 288 287 287 288 289 289 288 286 285 283 278 272 268 266 265 266 267 268 269 271 272 273 276 278 279 279 279 279 278 278 278 278 279 278 276 275 274
299 302 304 305 304 304 304 305 309 312 313 315 318 319 323 324 324 324 323 322 323 323 323 322 321 321 320 319 318 317 316 316 315 314 313 312 311 310 308 306 303 302 300 298 296 294 293 292 291 291 290 290 290 291 289 287 285 282 278 274 271 269 268 269 269 269 270 272 273 275 276 278 279 279 280 280 278 275 276 276 276 275 275 276 278
298 303 305 304 303 305 305 306 309 310 311 314 318 319 321 322 321 322 321 322 323 322 321 321 321 320 319 318 317 315 314 314 314 313 312 311 311 309 307 305 303 301 300 299 297 296 296 295 294 293 292 291 291 291 290 287 285 281 278 275 273 272 272 271 271 272 273 274 275 276 276 277 278 279 279 278 276 274 275 276 275 274 273 275 279
302 305 305 304 304 304 305 306 307 308 311 315 316 317 319 318 319 320 320 321 321 321 320 320 320 320 318 317 316 315 314 314 313 313 312 311 310 309 307 305 303 301 300 299 298 296 296 296 294 293 292 290 290 290 289 286 283 280 277 274 272 271 271 272 273 274 276 277 278 279 278 277 276 275 273 273 273 272 271 272 272 271 271 273 277
302 303 303 302 302 303 304 305 306 309 311 313 313 315 316 316 317 318 318 319 320 319 320 319 318 318 317 316 315 314 314 314 313 312 311 310 310 309 307 305 303 301 300 299 298 297 296 296 295 293 291 290 289 289 288 285 282 279 276 272 270 270 271 274 276 278 279 280 280 279 278 277 274 270 268 270 271 267 264 264 265 267 270 273 274
302 302 301 301 301 301 302 304 306 308 309 309 310 312 313 314 315 315 316 317 318 317 317 317 317 317 316 315 314 314 314 314 313 312 310 310 310 308 306 305 303 302 301 300 299 298 297 296 295 292 291 290 290 289 288 285 282 278 275 272 270 270 273 276 279 280 281 282 283 283 281 278 274 272 272 273 272 268 265 264 264 268 273 274 272
301 300 298 299 300 299 300 302 304 305 305 307 308 309 310 312 313 313 314 315 315 315 315 315 315 315 314 314 313 313 313 313 312 311 309 309 310 308 306 305 304 302 302 301 301 301 299 297 296 294 293 292 290 288 287 285 282 279 277 274 271 271 273 274 276 277 277 278 280 281 280 279 279 280 281 279 275 274 275 274 272 272 271 267 265
300 298 297 298 297 296 299 301 302 303 304 305 306 307 309 312 312 312 313 313 314 314 314 315 315 314 313 313 312 312 313 312 311 310 309 309 309 308 306 306 304 303 302 302 302 301 299 298 297 297 295 295 293 289 286 283 281 280 278 276 273 271 269 267 267 269 271 271 272 274 276 280 283 285 284 280 277 276 273 270 268 263 256 255 257
299 297 297 297 295 295 298 299 301 302 303 304 304 306 309 311 311 311 312 313 315 314 314 314 314 313 313 312 312 312 312 312 311 310 309 309 309 307 307 306 305 303 302 302 302 301 300 299 299 298 299 298 294 289 285 282 281 279 276 275 273 272 270 266 263 263 264 266 268 271 274 277 277 275 274 271 270 269 266 264 263 259 257 260 263
296 295 294 293 294 295 297 300 303 302 301 302 303 304 307 310 310 311 312 314 314 314 314 314 313 313 313 312 312 312 312 312 311 310 309 309 308 308 307 307 306 305 303 302 301 300 300 299 299 299 300 299 295 290 286 283 279 276 273 271 270 270 271 271 269 267 267 268 269 271 271 270 268 267 267 266 266 266 265 265 264 263 264 267 269
294 293 293 292 293 295 297 301 303 299 299 301 302 303 306 308 309 311 312 312 313 313 313 314 314 315 315 314 313 313 313 312 311 310 309 308 308 307 307 307 307 307 305 303 302 301 300 300 300 300 299 297 294 290 287 283 279 275 272 271 272 273 274 273 272 271 270 270 269 269 269 269 268 268 267 267 266 266 266 266 266 266 268 270 271
291 289 289 290 292 294 297 300 301 298 298 300 300 302 304 305 308 310 310 311 312 312 313 314 316 316 316 315 314 314 313 313 312 311 310 309 309 308 307 307 308 307 305 304 303 302 301 301 300 299 298 297 295 291 289 287 285 282 280 280 280 280 279 277 274 271 269 268 268 268 268 268 268 268 268 267 267 266 265 266 267 268 270 270 272
288 287 288 289 291 293 295 297 298 298 298 299 300 301 303 305 307 308 308 310 311 311 312 314 316 316 316 315 314 314 315 314 314 313 312 311 311 310 309 308 308 307 305 304 304 303 305 306 303 302 302 301 298 296 295 294 293 292 292 291 292 293 292 288 283 280 278 277 276 275 274 273 271 270 269 268 266 264 264 265 267 269 269 270 271
286 286 288 289 291 292 294 296 298 298 299 300 301 302 303 305 307 308 308 310 310 311 312 314 316 316 316 315 315 315 316 315 315 315 314 312 312 311 311 311 311 310 308 306 306 307 308 307 303 301 300 298 296 296 296 296 296 297 295 290 289 289 287 284 283 284 284 282 281 280 279 278 277 276 274 272 270 269 269 269 270 270 270 269 269
285 286 288 291 292 293 295 297 298 298 299 300 302 303 304 305 306 308 309 310 311 312 313 315 316 316 315 315 315 315 316 315 316 316 315 315 314 312 312 311 311 310 309 307 306 305 303 297 291 290 289 289 289 291 293 294 293 289 283 278 276 275 274 275 278 280 279 276 275 274 274 275 276 276 276 275 275 274 273 273 272 270 268 267 267